Printer-friendly version

IAU Minor Planet Center

Minor Planet Center

MPEC 2005-B14 : 2005 AD3

The following Minor Planet Electronic Circular may be linked-to from your own Web pages, but must not otherwise be redistributed electronically.


Read MPEC 2005-B13 Read MPEC 2005-B15


M.P.E.C. 2005-B14                                Issued 2005 Jan. 17, 23:51 UT

     The Minor Planet Electronic Circulars contain information on unusual
         minor planets and routine data on comets.  They are published
   on behalf of Commission 20 of the International Astronomical Union by the
          Minor Planet Center, Smithsonian Astrophysical Observatory,
                          Cambridge, MA 02138, U.S.A.

                  Supported in part by the Brinson Foundation
             Prepared using the Tamkin Foundation Computer Network

                              MPC@CFA.HARVARD.EDU
          URL http://cfa-www.harvard.edu/iau/mpc.html  ISSN 1523-6714

                                   2005 AD3

Additional Observations:
     K05A03D  C2005 01 17.28126 07 12 39.00 +23 49 49.1          18.6   EB014704
     K05A03D  C2005 01 17.29602 07 12 37.44 +23 49 42.2          19.4   EB014704
     K05A03D  C2005 01 17.32523 07 12 34.37 +23 49 30.0          19.5   EB014704
     K05A03D  C2005 01 17.33908 07 12 32.91 +23 49 23.5          19.8   EB014704

Observer details:
704 Lincoln Laboratory ETS, New Mexico.  Observers M. Blythe, F. Shelly,
    M. Bezpalko, R. Huber, L. Manguso, D. Torres, R. Kracke, M. McCleary,
    H. Stange, A. Milner.  Measurers J. Stuart, R. Sayer, J. Evans, J. Kommers.
    1.0-m f/2.15 reflector + CCD.

Orbital elements:
2005 AD3
Epoch 2005 Jan. 10.0 TT = JDT 2453380.5                 MPC
M 316.69537              (2000.0)            P               Q
n   0.25823990     Peri.  277.54360     -0.81700761     +0.52737783
a   2.4422333      Node   294.55435     -0.37379840     -0.79229649
e   0.5105140      Incl.   14.85416     -0.43905958     -0.30682062
P   3.82           H   16.8           G   0.15
From 15 observations 2005 Jan. 6-17.

Ephemeris:
2005 AD3                 a,e,i = 2.44, 0.51, 15                  q = 1.1954
Date    TT    R. A. (2000) Decl.     Delta      r     Elong.  Phase     V
2005 01 10    07 24.94   +24 37.2    1.052    2.035   177.4     1.3    18.6
2005 01 20    07 08.02   +23 29.7    1.003    1.971   165.6     7.1    18.8
2005 01 30    06 51.88   +22 06.3    0.980    1.907   151.9    14.1    19.0
2005 02 09    06 38.76   +20 33.2    0.981    1.841   138.7    20.7    19.1
2005 02 19    06 30.26   +18 58.3    0.999    1.776   126.7    26.5    19.2
2005 03 01    06 26.98   +17 27.2    1.028    1.711   115.9    31.4    19.4
2005 03 11    06 28.82   +16 01.6    1.062    1.646   106.4    35.4    19.5
2005 03 21    06 35.37   +14 40.1    1.097    1.583    98.1    38.5    19.5
2005 03 31    06 46.05   +13 19.5    1.129    1.521    91.0    41.1    19.6
2005 04 10    07 00.34   +11 55.9    1.156    1.461    85.0    43.1    19.6
2005 04 20    07 17.84   +10 25.3    1.176    1.405    79.8    44.7    19.6
2005 04 30    07 38.17   +08 44.0    1.189    1.353    75.6    46.1    19.6
2005 05 10    08 01.10   +06 49.1    1.196    1.307    72.1    47.3    19.6
2005 05 20    08 26.47   +04 38.4    1.196    1.267    69.5    48.4    19.5
2005 05 30    08 54.15   +02 10.9    1.192    1.235    67.5    49.3    19.5
2005 06 09    09 24.13   -00 33.2    1.186    1.212    66.3    50.1    19.5
2005 06 19    09 56.38   -03 32.1    1.180    1.199    65.7    50.6    19.4
2005 06 29    10 30.87   -06 41.5    1.177    1.196    65.6    50.7    19.4
2005 07 09    11 07.51   -09 55.4    1.181    1.203    65.9    50.5    19.4
2005 07 19    11 46.10   -13 05.9    1.196    1.221    66.5    49.7    19.5
2005 07 29    12 26.22   -16 03.5    1.223    1.249    67.1    48.5    19.5
2005 08 08    13 07.29   -18 39.8    1.264    1.284    67.6    46.9    19.6
2005 08 18    13 48.59   -20 48.2    1.322    1.327    67.8    44.9    19.7
2005 08 28    14 29.35   -22 25.0    1.395    1.377    67.7    42.7    19.9
2005 09 07    15 08.92   -23 30.0    1.483    1.431    67.0    40.4    20.0
2005 09 17    15 46.81   -24 05.3    1.585    1.488    65.8    38.0    20.2
2005 09 27    16 22.70   -24 14.4    1.699    1.549    64.0    35.6    20.4
2005 10 07    16 56.52   -24 01.4    1.822    1.612    61.8    33.1    20.5

Timothy B. Spahr             (C) Copyright 2005 MPC           M.P.E.C. 2005-B14

Read MPEC 2005-B13 Read MPEC 2005-B15


Our Web policy. Index to the CBAT/MPC/ICQ pages.


Valid HTML 4.01!